SCP
0 0 0 0 0 0 0 0 1 1 1 1 1 1 1 1 2 2 2 3 3 3 3 4 4 4 4 5 5 5 4 4 4 4 3 3 2 2 2 1 1 1 1 1
0 0 0 0 0 0 0 0 1 1 1 1 1 1 1 1 1 2 2 2 3 3 3 4 4 4 5 5 6 6 6 5 4 4 3 2 2 1 1 1 1 1 1 1
0 0 0 0 0 0 0 0 0 1 1 1 1 1 1 1 1 2 2 2 3 3 3 3 3 4 4 5 6 7 6 5 4 4 3 2 2 1 1 1 1 0 0 1
0 0 0 0 0 0 0 0 0 1 1 1 1 1 0 1 1 1 2 3 3 3 2 3 3 3 4 5 6 6 6 5 4 4 3 2 1 1 1 1 0 0 0 0
0 0 0 0 0 0 0 0 0 0 1 1 0 0 0 0 1 1 2 3 3 2 2 2 3 3 3 5 6 6 5 5 5 4 3 2 1 1 1 0 0 0 0 0
0 0 0 0 0 0 0 0 0 0 0 0 0 0 0 0 1 1 2 3 3 2 2 2 3 3 3 5 6 6 5 6 5 4 3 2 1 1 0 0 0 0 0 0
0 0 0 0 0 0 0 0 0 0 0 0 0 0 0 0 1 1 2 3 3 2 2 2 3 4 4 5 6 6 5 5 5 4 3 2 1 0 0 0 0 0 0 0
0 0 0 0 0 0 0 0 0 0 0 0 0 0 0 1 1 1 1 2 2 2 2 3 3 4 4 4 6 7 5 4 4 4 3 1 1 0 0 0 0 0 0 0
0 0 0 0 0 0 0 0 0 0 0 0 0 0 0 1 1 1 1 2 2 3 3 3 3 3 3 3 5 7 6 4 3 3 2 1 1 1 0 0 0 0 0 0
0 0 0 0 0 0 0 0 0 0 0 0 0 0 0 0 1 1 1 2 2 2 2 2 2 3 2 2 4 6 6 5 3 3 2 1 1 1 0 0 0 0 0 0
0 0 0 0 0 0 0 0 0 0 0 0 0 0 0 0 0 1 1 1 1 2 2 2 2 2 2 1 3 6 7 6 4 3 2 1 1 1 0 0 0 0 0 0
0 0 0 0 0 0 0 0 0 0 0 0 0 0 0 0 0 1 1 1 1 1 2 2 2 2 1 1 2 6 7 6 4 3 2 1 1 1 1 0 0 0 0 0
0 0 0 0 0 0 0 0 0 0 0 0 0 0 0 0 1 1 1 1 1 2 2 2 2 1 1 1 2 4 5 5 4 2 2 2 1 1 1 0 0 0 0 0
0 0 0 0 0 0 0 0 0 0 0 0 0 0 0 0 1 1 1 1 1 2 2 2 2 1 1 1 1 2 3 4 3 2 1 2 2 1 1 0 0 0 0 0
0 0 0 0 0 0 0 0 0 0 0 0 0 0 0 0 0 1 1 1 1 2 2 2 1 1 1 1 1 1 2 2 3 2 1 1 2 1 1 0 0 0 0 0
0 0 0 0 0 0 0 0 0 0 0 0 0 0 0 0 0 1 1 1 1 1 1 1 1 1 0 0 1 1 1 2 2 1 1 1 2 1 1 0 0 0 0 0
0 0 0 0 0 0 0 0 0 0 0 0 0 0 0 0 0 1 0 0 1 1 1 1 1 0 0 0 0 1 1 1 1 1 1 2 1 1 1 0 0 0 0 0
0 0 0 0 0 0 0 0 0 0 0 0 0 0 0 0 0 0 0 0 1 1 1 1 1 0 0 1 1 1 1 1 1 1 2 2 1 1 1 1 0 0 0 0
0 0 0 0 0 0 0 0 0 0 0 0 0 0 0 0 0 0 0 0 0 1 1 1 0 0 0 1 1 1 1 0 1 1 2 2 1 1 1 1 1 1 0 0
0 0 0 0 0 0 0 0 0 0 0 0 0 0 0 0 0 0 0 0 0 0 1 1 0 0 0 0 1 1 1 0 1 1 1 1 1 1 1 1 1 1 0 0
0 0 0 0 0 0 0 0 0 0 0 0 0 0 0 0 0 0 0 0 0 0 0 0 0 0 0 0 1 1 1 0 1 1 1 1 0 1 1 1 1 1 0 0
0 0 0 0 0 0 0 0 0 0 0 0 0 0 0 0 0 0 0 0 0 0 0 0 1 1 1 0 1 1 0 0 0 0 0 0 0 0 0 0 1 1 0 0
0 0 0 0 0 0 0 0 0 0 0 0 0 0 0 0 0 0 0 0 0 0 0 0 0 1 1 1 0 0 0 0 0 0 0 0 0 0 0 0 0 0 0 0
0 0 0 0 0 0 0 0 0 0 0 0 0 0 0 0 0 0 0 0 0 0 0 0 0 0 0 0 0 0 0 0 0 0 0 0 0 0 0 0 0 0 0 0
0 0 0 0 0 0 0 0 0 0 0 0 0 0 0 0 0 0 0 0 0 0 0 0 0 0 0 0 0 0 0 0 0 0 0 0 0 0 0 0 0 0 0 0
0 0 0 0 0 0 0 0 0 0 0 0 0 0 0 0 0 0 0 0 0 0 0 0 0 0 0 0 0 0 0 0 0 0 0 0 0 0 0 0 0 0 0 0
Wind_Speed
3 4 1 4 5 4 3 2 2 4 2 1 2 2 4 4 4 5 6 6 7 7 5 4 4 5 5 5 5 5 5 4 4 3 3 2 2 1 1 1 1 1 1 1
5 2 5 3 2 2 2 2 2 3 1 2 2 2 3 4 5 6 7 8 9 7 5 5 5 6 5 5 5 5 5 4 4 3 3 2 2 2 1 0 1 1 1 1
2 5 2 1 1 1 2 4 4 3 1 2 2 2 3 2 2 3 4 5 5 7 8 7 7 6 6 6 6 5 5 4 3 3 3 3 3 2 1 1 0 1 1 1
3 4 1 1 2 3 3 4 4 3 2 2 1 2 5 3 3 4 5 5 6 6 6 6 7 7 6 6 5 5 5 4 4 4 4 5 3 2 2 2 1 0 1 1
4 2 1 2 4 4 3 1 2 2 2 1 2 1 6 1 4 7 6 6 6 5 5 6 7 7 6 5 5 5 5 4 4 4 5 4 3 2 1 1 1 0 1 1
5 3 3 3 1 2 3 5 5 5 5 1 2 2 6 4 6 5 5 4 4 4 4 5 5 4 4 5 5 5 5 4 4 4 4 5 5 4 3 2 1 1 1 1
6 5 2 1 2 3 4 5 4 5 4 4 2 2 9 5 4 5 5 4 3 4 5 4 5 5 5 5 5 5 6 5 4 5 4 5 5 5 5 4 3 2 1 1
3 6 4 1 2 3 2 6 6 3 4 5 3 5 7 3 2 1 2 3 3 3 5 5 5 5 5 5 5 6 6 5 5 4 4 3 3 3 3 3 3 3 2 2
1 5 5 3 1 4 3 2 4 6 1 2 5 6 7 2 2 1 1 1 1 2 4 5 4 5 4 5 5 6 6 5 5 4 4 3 3 3 3 2 2 2 2 2
2 4 6 4 3 4 3 6 5 4 3 3 5 4 5 4 4 2 1 1 1 1 2 4 4 5 4 4 4 4 5 5 4 4 3 3 3 3 3 2 2 2 2 1
1 1 6 4 1 1 2 3 4 4 4 4 3 7 5 4 4 4 3 2 2 2 2 3 4 4 4 3 4 4 4 3 3 3 3 2 2 2 2 2 3 2 2 2
1 2 2 5 4 1 2 3 5 3 2 3 3 8 4 2 2 2 2 1 1 2 3 3 4 4 4 4 4 4 4 4 3 3 3 3 2 2 2 2 2 2 2 2
1 3 3 7 7 4 2 2 2 4 3 3 4 8 2 2 2 1 2 1 1 3 3 3 3 3 3 3 4 3 3 4 3 3 3 2 2 2 3 3 2 2 2 2
1 2 4 5 6 4 3 3 2 3 3 4 7 8 6 5 3 3 2 2 2 3 4 3 2 2 2 3 3 4 3 3 3 3 3 3 3 3 3 2 2 2 2 2
3 1 3 5 6 4 5 6 4 5 6 7 7 6 7 6 5 3 2 2 3 3 3 4 3 3 2 2 2 3 3 3 3 3 3 4 3 3 2 2 2 2 2 3
3 1 2 4 5 4 5 6 6 5 4 5 4 6 4 2 0 1 2 3 4 4 4 4 4 3 3 3 3 3 3 3 3 3 4 3 3 3 3 3 2 2 3 3
1 1 0 4 5 3 4 5 3 2 3 4 5 5 2 1 1 2 3 4 4 4 4 4 4 4 4 4 3 3 3 3 3 3 3 3 3 3 3 3 2 3 3 3
3 2 1 2 2 3 6 3 2 1 2 2 3 3 2 3 3 3 3 4 4 4 5 5 4 3 3 2 2 2 2 3 3 3 3 3 2 3 2 2 2 3 2 2
5 4 2 1 2 6 5 2 1 1 4 1 2 1 1 1 2 3 1 3 4 5 5 4 4 3 3 2 3 2 2 2 3 3 3 3 3 3 2 2 3 2 2 3
3 3 3 1 1 4 5 3 2 1 4 2 0 1 1 1 2 4 2 1 1 2 2 3 3 3 3 2 3 3 2 2 3 3 3 3 2 3 3 3 2 2 2 3
3 1 1 2 3 7 5 4 2 1 5 4 1 2 2 3 4 3 1 0 1 2 3 3 3 3 3 2 3 3 2 3 4 3 2 1 1 2 2 2 1 2 2 2
2 1 2 2 3 7 3 3 1 5 4 2 2 2 2 2 2 0 1 1 2 2 3 3 3 2 2 3 3 3 3 3 2 2 1 1 1 1 1 1 2 2 2 2
3 4 3 5 7 6 3 4 4 3 3 3 2 3 2 1 1 1 1 1 1 2 2 2 3 2 1 2 3 3 3 2 2 2 1 1 0 1 1 1 2 2 2 2
4 1 2 4 7 7 6 5 4 3 4 4 3 2 2 2 2 2 1 1 1 2 2 2 3 2 1 1 2 3 3 2 2 2 1 1 1 1 2 1 1 2 2 3
5 2 3 6 7 7 5 3 4 5 3 2 1 0 2 3 2 2 2 2 2 1 1 2 3 2 2 2 2 2 2 3 2 1 1 1 1 1 2 2 2 3 4 4
5 6 5 7 6 4 8 7 6 4 3 2 0 1 0 2 3 2 2 1 2 2 2 2 2 2 2 2 2 2 2 3 3 1 1 1 1 1 1 2 3 3 4 5
Wind_Direction
42 67 241 231 201 195 172 181 252 269 273 116 203 242 252 198 184 191 192 191 197 199 182 156 151 147 143 144 145 150 152 151 143 136 143 142 147 140 133 139 129 120 113 106
35 319 245 218 184 178 170 180 254 293 307 150 172 250 247 205 202 203 204 205 203 192 177 171 165 162 162 164 162 158 163 161 162 165 162 153 145 150 149 124 59 65 88 98
190 255 255 140 220 169 222 192 211 217 357 49 111 316 273 246 206 217 217 216 207 197 192 183 176 176 169 169 170 168 160 160 162 145 128 116 96 80 77 59 359 341 34 57
255 264 212 240 250 179 264 230 194 182 113 309 105 266 274 250 254 236 233 223 217 206 196 185 178 182 184 181 166 160 156 154 153 145 147 152 151 164 189 187 195 289 9 26
279 259 225 249 249 182 220 119 115 107 132 53 2 180 278 273 250 249 244 234 223 202 193 191 188 189 183 169 167 160 155 156 153 151 153 155 152 159 155 142 141 116 331 332
258 269 213 226 274 149 126 65 56 53 69 10 257 180 272 233 228 248 240 231 213 188 191 189 185 176 176 164 163 158 156 161 160 159 164 165 163 161 161 178 187 227 293 311
331 324 304 161 47 26 78 79 27 2 10 260 262 216 248 248 236 226 229 228 209 190 193 188 179 182 178 173 169 165 166 174 171 166 180 178 172 172 182 193 197 200 222 262
346 311 305 319 180 195 168 135 155 201 229 276 309 244 257 272 285 265 202 180 179 190 194 191 187 184 181 180 174 172 175 178 176 172 180 172 169 174 190 199 196 197 208 228
232 274 300 307 296 139 137 152 162 137 164 279 278 283 300 294 348 15 81 124 164 194 195 192 183 176 174 179 181 182 179 178 177 176 174 172 175 179 187 193 190 199 213 229
189 273 299 311 36 30 113 141 98 111 144 269 290 278 260 270 282 301 259 215 230 213 188 178 175 171 173 179 172 165 168 174 174 171 174 177 184 189 187 180 197 208 218 223
98 205 312 350 3 285 71 82 96 105 142 163 268 274 240 236 241 243 245 230 221 203 177 172 165 164 160 157 156 154 157 160 165 169 170 173 190 192 181 189 208 213 220 227
38 115 290 288 287 313 145 153 139 137 219 178 203 268 281 244 250 231 244 231 196 158 150 147 143 146 156 168 166 164 168 165 175 170 166 181 187 179 191 213 224 219 231 244
35 86 9 341 342 1 45 102 121 121 127 171 196 263 303 14 347 287 237 207 159 134 130 129 131 146 162 167 167 170 174 173 170 161 160 169 178 187 213 227 236 234 235 256
91 125 173 214 243 276 293 282 186 142 170 220 229 255 294 303 292 288 255 200 154 146 145 149 154 154 163 168 169 172 174 171 161 157 171 192 204 208 219 226 235 244 242 251
70 210 242 255 264 260 259 270 245 209 206 215 248 251 269 265 251 241 203 169 146 154 161 166 166 167 168 162 168 173 169 166 161 171 196 218 219 215 213 224 237 248 253 256
29 245 305 295 288 278 278 279 263 248 227 233 263 275 276 284 263 183 193 181 181 187 186 180 177 177 184 191 185 176 177 180 169 186 212 219 217 218 222 227 230 247 263 266
308 168 348 280 302 330 290 272 254 239 223 198 230 253 285 330 285 233 214 203 208 202 194 189 186 189 201 201 182 182 184 174 180 205 222 219 220 229 234 231 231 250 259 264
181 160 175 277 349 258 247 264 251 252 274 223 233 260 254 259 268 253 209 196 206 197 193 193 185 183 191 191 169 170 165 169 192 213 229 225 225 240 242 236 247 255 256 260
179 162 155 149 266 283 295 293 222 233 286 268 223 276 8 36 13 321 268 200 202 198 193 191 183 175 170 173 165 150 170 183 195 217 224 222 216 229 240 247 258 259 256 275
93 123 132 153 235 258 265 306 310 87 288 304 168 221 201 54 346 284 291 248 217 187 173 163 152 139 157 179 151 149 187 196 222 232 228 229 220 218 236 245 256 257 250 266
14 30 166 206 244 269 278 313 20 94 271 300 252 226 217 228 236 257 266 248 192 167 153 147 146 156 185 176 152 172 197 225 237 232 210 219 224 227 235 244 244 264 273 286
231 226 216 181 225 261 321 9 170 244 283 293 268 236 227 250 284 271 176 164 148 130 132 139 145 167 188 174 166 185 222 238 236 199 192 213 230 238 241 247 278 281 280 299
228 207 210 208 230 261 294 269 268 258 280 278 253 242 202 209 222 207 191 173 156 145 151 149 151 165 210 188 171 192 231 230 186 168 196 227 299 293 268 239 270 294 292 284
278 233 231 272 276 291 296 290 291 287 274 278 258 224 188 181 184 179 171 173 153 150 158 147 144 162 216 216 195 208 213 184 153 169 211 224 254 292 298 286 270 272 278 281
251 268 270 274 284 303 302 291 301 311 320 329 336 300 166 150 173 182 178 187 171 162 161 149 159 184 212 212 221 219 192 155 151 176 216 252 258 269 299 305 277 261 256 238
218 208 217 246 251 260 280 289 294 296 290 257 239 360 115 165 171 167 169 183 170 163 152 153 167 187 200 197 219 205 167 158 156 173 229 242 258 278 289 313 320 297 264 277